Regional Weather Roundup
Issued by NWS Newport/Morehead, NC

Current Version | Previous Version | Text Only | Print | Product List | Glossary On
Versions: 1 2 3 4 5 6 7 8 9 10 11 12 13 14 15 16 17 18 19 20 21 22 23 24 25 26 27 28 29 30 31 32 33 34 35 36 37 38 39 40 41 42 43 44 45 46 47 48 49 50
000
ASUS42 KMHX 272213
RWRMHX
WEATHER ROUNDUP FOR EASTERN NORTH CAROLINA
NATIONAL WEATHER SERVICE NEWPORT/MOREHEAD CITY NC
600 PM EDT WED JUL 27 2016

NOTE: "FAIR" INDICATES FEW OR NO CLOUDS BELOW 12,000 FEET
WITH NO SIGNIFICANT WEATHER AND/OR OBSTRUCTIONS TO VISIBILITY

NCZ015>017-031-032-045>047-102-103-272300-
NORTH COAST

CITY           SKY/WX    TMP DP  RH WIND       PRES   REMARKS
EDENTON        SUNNY     96  73  47 W3        29.89F HX 105
ELIZABETH CITY PTSUNNY   94  77  57 NE8       29.88F HX 108
KITTY HAWK     CLEAR     93  75  55 E5        29.89F HX 104
MANTEO           N/A     90  79  70 E5        29.91S HX 105

$$

NCZ045>047-081-094-103-104-272300-
CENTRAL COAST

CITY           SKY/WX    TMP DP  RH WIND       PRES   REMARKS
FRISCO         SUNNY     86  80  82 SW8       29.90F HX 101

$$

NCZ095-097-098-100-101-272300-
SOUTHERN COAST

CITY           SKY/WX    TMP DP  RH WIND       PRES   REMARKS
BEAUFORT       SUNNY     87  81  82 SW17      29.91F HX 104
CEDAR ISLAND   NOT AVBL
JACKSONVILLE   MOSUNNY   91  79  67 SE8       29.91S HX 107
PINEY ISLAND   NOT AVBL
WILMINGTON     SUNNY     92  76  59 SW15      29.93S HX 104


$$

NCZ011>013-027>030-043-044-078>080-089-090>093-098-272300-
COASTAL PLAIN

CITY           SKY/WX    TMP DP  RH WIND       PRES   REMARKS
AHOSKIE        SUNNY     89  79  71 CALM      29.91S HX 105
CLINTON        SUNNY     98  74  46 SW6       29.92R HX 109
ELIZABETHTOWN  SUNNY     97  71  43 SW9       29.93S HX 104
GOLDSBORO      CLOUDY    95  75  52 W7        29.89F HX 107
GREENVILLE     SUNNY     95  79  59 W3        29.93S HX 112
HAVELOCK       MOSUNNY   92  78  63 S10       29.91F HX 107
KENANSVILLE    NOT AVBL
KINSTON        MOSUNNY   95  73  49 CALM      29.91S HX 105
NEW BERN       SUNNY     94  78  60 SW6       29.91F HX 110
RICHLANDS      MOSUNNY   97  77  52 SW7       29.91F HX 112
ROCKY MOUNT    CLOUDY    91  78  65 W3        29.91F HX 106
WASHINGTON     HVY RAIN  77  73  85 N9        29.91S
WHITEVILLE     SUNNY     95  73  48 SW3       29.93S HX 104

$$

AMZ130-135-150-152-154-156-158-170-250-252-270-ANZ085-086-088-633-658-670-272300-
MARINE OBSERVATIONS

STATION/POSITION TIME  TEMP    WIND        PRES    WAVE   SWELL
                       AIR SEA DIR/SP/G            HT/PER HT/PER
                 (UTC) (F)     (DEG/KT/KT) (MB)    (FT/S) (FT/S)
CHESAPEAKE LIGHT NOT AVBL
64 E VA BEACH    2150   83 85  170/  4/  6 1012.5    2/ 6   2/ 6
DUCK             2100   83 70   80/  7/  8 1012.2
2 E DUCK         2111      79                N/A     1/ 9
OREGON INLET     2100   86 85  180/  6/  8 1012.9
13E OREGON INLT  2200      84                N/A     2/ 5   2/ 5
HATTERAS CG      2100   87 84  210/  6/ 12 1012.9
DIAMOND BUOY     2150   85 85  240/ 10/ 12 1012.8    3/ 6   2/ 6
CAPE LOOKOUT     2200   86     210/ 11/ 14 1012.8
BEAUFORT LAB     2100   86 83  210/ 12/ 14 1012.7
30 SE NEW RVR IN 2108   85 85  220/ 16/ 21 1013.6
30 SE NEW RVR IN 2155      85                N/A     4/ 5
27 SE WRIGHTSVLE 2108   85 84  220/ 17/ 23 1014.0
5 SE WRIGHTSVLE  2108   84 81  220/ 16/ 21 1014.0
225 S CAPE HAT   2150   85 85  250/  8/ 10 1016.3    4/ 6   3/ 6
41 SE CHARLESTON 2150   85 86  220/ 16/ 17 1014.8    3/ 5   2/ 8

$$




USA.gov is the U.S. government's official web portal to all federal, state and local government web resources and services.